QPF
0.01 0.01 0.00 0.00 0.00 0.00 0.00 0.00 0.00 0.00 0.00 0.00 0.00 0.00 0.00 0.00 0.00 0.00 0.00 0.00 0.00 0.00 0.00 0.00 0.00 0.00 0.00 0.00 0.00 0.00 0.00 0.00 0.00 0.00 0.00 0.00 0.00 0.00 0.00 0.00 0.00 0.00 0.00 0.00
0.02 0.01 0.00 0.00 0.00 0.00 0.00 0.00 0.00 0.00 0.00 0.00 0.00 0.00 0.00 0.00 0.00 0.00 0.00 0.00 0.00 0.00 0.00 0.00 0.00 0.00 0.00 0.00 0.00 0.00 0.00 0.00 0.00 0.00 0.00 0.00 0.00 0.00 0.00 0.00 0.00 0.00 0.00 0.00
0.02 0.01 0.00 0.00 0.00 0.00 0.00 0.00 0.00 0.00 0.00 0.00 0.00 0.00 0.00 0.00 0.00 0.00 0.00 0.00 0.00 0.00 0.00 0.00 0.00 0.00 0.00 0.00 0.00 0.00 0.00 0.00 0.00 0.00 0.00 0.00 0.00 0.00 0.00 0.00 0.00 0.00 0.00 0.00
0.01 0.00 0.00 0.00 0.00 0.00 0.00 0.00 0.00 0.00 0.00 0.00 0.00 0.00 0.00 0.00 0.00 0.00 0.00 0.00 0.00 0.00 0.00 0.00 0.00 0.00 0.00 0.00 0.00 0.00 0.00 0.00 0.00 0.00 0.00 0.00 0.00 0.00 0.00 0.00 0.00 0.00 0.00 0.00
0.01 0.00 0.00 0.00 0.00 0.00 0.00 0.00 0.00 0.00 0.00 0.00 0.00 0.00 0.00 0.00 0.00 0.00 0.00 0.00 0.00 0.00 0.00 0.00 0.00 0.00 0.00 0.00 0.00 0.00 0.00 0.00 0.00 0.00 0.00 0.00 0.00 0.00 0.00 0.00 0.00 0.00 0.00 0.00
0.01 0.00 0.00 0.00 0.00 0.00 0.00 0.00 0.01 0.01 0.01 0.02 0.00 0.00 0.00 0.00 0.00 0.00 0.00 0.00 0.00 0.00 0.00 0.00 0.00 0.00 0.00 0.00 0.00 0.00 0.00 0.00 0.00 0.00 0.00 0.00 0.00 0.00 0.00 0.00 0.00 0.00 0.00 0.00
0.03 0.01 0.00 0.00 0.00 0.00 0.01 0.03 0.07 0.08 0.07 0.03 0.00 0.00 0.00 0.00 0.00 0.00 0.00 0.00 0.00 0.00 0.00 0.00 0.00 0.00 0.00 0.00 0.00 0.00 0.00 0.00 0.00 0.00 0.00 0.00 0.00 0.00 0.00 0.00 0.00 0.00 0.00 0.00
0.03 0.02 0.01 0.00 0.00 0.00 0.00 0.02 0.05 0.05 0.02 0.00 0.00 0.00 0.00 0.00 0.00 0.00 0.00 0.00 0.00 0.00 0.00 0.00 0.00 0.00 0.00 0.00 0.00 0.00 0.00 0.00 0.00 0.00 0.00 0.00 0.00 0.00 0.00 0.00 0.00 0.00 0.00 0.00
0.05 0.02 0.01 0.00 0.00 0.00 0.00 0.00 0.00 0.01 0.02 0.01 0.00 0.00 0.00 0.00 0.00 0.00 0.00 0.00 0.00 0.00 0.00 0.00 0.00 0.00 0.00 0.00 0.00 0.00 0.00 0.00 0.00 0.00 0.00 0.00 0.00 0.00 0.00 0.00 0.00 0.00 0.00 0.00
0.09 0.03 0.01 0.01 0.00 0.00 0.01 0.01 0.01 0.04 0.06 0.03 0.01 0.00 0.00 0.00 0.00 0.00 0.00 0.00 0.00 0.00 0.00 0.00 0.00 0.00 0.00 0.00 0.00 0.00 0.00 0.00 0.00 0.00 0.00 0.00 0.00 0.00 0.00 0.00 0.00 0.00 0.00 0.00
0.12 0.08 0.02 0.01 0.01 0.01 0.01 0.02 0.03 0.04 0.03 0.01 0.00 0.00 0.00 0.00 0.00 0.00 0.00 0.00 0.00 0.00 0.00 0.00 0.00 0.00 0.00 0.00 0.00 0.00 0.00 0.00 0.00 0.00 0.00 0.00 0.00 0.00 0.00 0.00 0.00 0.00 0.00 0.00
0.13 0.14 0.07 0.01 0.01 0.01 0.01 0.01 0.02 0.03 0.03 0.01 0.00 0.00 0.00 0.00 0.00 0.00 0.00 0.00 0.00 0.00 0.00 0.00 0.00 0.00 0.00 0.00 0.00 0.00 0.00 0.00 0.00 0.00 0.00 0.00 0.00 0.00 0.00 0.00 0.00 0.00 0.00 0.00
0.18 0.21 0.15 0.07 0.04 0.02 0.03 0.03 0.02 0.02 0.02 0.01 0.00 0.00 0.00 0.00 0.00 0.00 0.00 0.00 0.00 0.00 0.00 0.00 0.00 0.00 0.00 0.00 0.00 0.00 0.00 0.00 0.00 0.00 0.00 0.00 0.00 0.00 0.00 0.00 0.00 0.00 0.00 0.00
0.16 0.21 0.18 0.11 0.06 0.04 0.04 0.03 0.03 0.03 0.05 0.03 0.01 0.00 0.00 0.00 0.00 0.00 0.00 0.00 0.00 0.00 0.00 0.00 0.00 0.00 0.00 0.00 0.00 0.00 0.00 0.00 0.00 0.00 0.00 0.00 0.00 0.00 0.00 0.00 0.00 0.00 0.00 0.01
0.11 0.13 0.10 0.06 0.02 0.02 0.02 0.02 0.02 0.04 0.04 0.02 0.01 0.00 0.00 0.00 0.00 0.00 0.00 0.00 0.00 0.00 0.00 0.00 0.00 0.00 0.00 0.00 0.00 0.00 0.00 0.00 0.00 0.00 0.00 0.00 0.00 0.00 0.00 0.00 0.00 0.00 0.00 0.00
0.13 0.12 0.08 0.04 0.02 0.02 0.02 0.01 0.01 0.02 0.03 0.01 0.00 0.00 0.00 0.00 0.00 0.00 0.00 0.00 0.00 0.00 0.00 0.00 0.00 0.00 0.00 0.00 0.00 0.00 0.00 0.00 0.00 0.00 0.00 0.00 0.00 0.00 0.00 0.00 0.00 0.00 0.00 0.00
0.15 0.13 0.09 0.05 0.02 0.05 0.06 0.01 0.01 0.01 0.01 0.01 0.00 0.00 0.00 0.00 0.00 0.00 0.00 0.00 0.00 0.00 0.00 0.00 0.00 0.00 0.00 0.00 0.00 0.00 0.00 0.00 0.00 0.00 0.00 0.00 0.00 0.00 0.00 0.00 0.00 0.00 0.00 0.00
0.11 0.13 0.11 0.05 0.05 0.10 0.05 0.01 0.01 0.01 0.00 0.00 0.00 0.00 0.00 0.00 0.00 0.00 0.00 0.00 0.00 0.00 0.00 0.00 0.00 0.00 0.00 0.00 0.00 0.00 0.00 0.00 0.00 0.00 0.00 0.00 0.00 0.00 0.00 0.00 0.00 0.00 0.00 0.00
0.05 0.10 0.12 0.08 0.07 0.06 0.01 0.00 0.00 0.01 0.00 0.00 0.00 0.00 0.00 0.00 0.00 0.00 0.00 0.00 0.00 0.00 0.00 0.00 0.00 0.00 0.00 0.00 0.00 0.00 0.00 0.00 0.00 0.00 0.00 0.00 0.00 0.00 0.00 0.00 0.00 0.00 0.00 0.00
0.03 0.07 0.14 0.12 0.08 0.04 0.01 0.00 0.00 0.01 0.01 0.00 0.00 0.00 0.00 0.00 0.00 0.00 0.00 0.00 0.00 0.00 0.00 0.00 0.00 0.00 0.00 0.00 0.00 0.00 0.00 0.00 0.00 0.00 0.00 0.00 0.00 0.00 0.00 0.00 0.00 0.00 0.00 0.00
0.09 0.12 0.15 0.12 0.08 0.02 0.01 0.01 0.01 0.02 0.02 0.01 0.00 0.00 0.00 0.00 0.00 0.00 0.00 0.00 0.00 0.00 0.00 0.00 0.00 0.00 0.00 0.00 0.00 0.00 0.00 0.00 0.00 0.00 0.00 0.00 0.00 0.00 0.00 0.00 0.00 0.00 0.00 0.00
0.10 0.14 0.13 0.12 0.10 0.03 0.01 0.01 0.03 0.05 0.02 0.01 0.01 0.00 0.00 0.00 0.00 0.00 0.00 0.00 0.00 0.00 0.00 0.00 0.00 0.00 0.00 0.00 0.00 0.00 0.00 0.00 0.00 0.00 0.00 0.00 0.00 0.00 0.00 0.00 0.00 0.00 0.00 0.00
0.07 0.12 0.12 0.11 0.06 0.02 0.01 0.02 0.02 0.02 0.02 0.01 0.01 0.00 0.00 0.00 0.00 0.00 0.00 0.00 0.00 0.00 0.00 0.00 0.00 0.00 0.00 0.00 0.00 0.00 0.00 0.00 0.00 0.00 0.00 0.00 0.00 0.00 0.00 0.00 0.00 0.00 0.00 0.00
0.04 0.05 0.08 0.06 0.02 0.01 0.02 0.02 0.01 0.01 0.01 0.01 0.01 0.01 0.00 0.00 0.00 0.00 0.00 0.00 0.00 0.00 0.00 0.00 0.00 0.00 0.00 0.00 0.00 0.00 0.00 0.00 0.00 0.00 0.00 0.00 0.00 0.00 0.00 0.00 0.00 0.00 0.00 0.00
0.02 0.03 0.05 0.04 0.02 0.01 0.01 0.01 0.01 0.01 0.01 0.01 0.01 0.01 0.00 0.00 0.00 0.00 0.00 0.00 0.00 0.00 0.00 0.00 0.00 0.00 0.00 0.00 0.00 0.00 0.00 0.00 0.00 0.00 0.00 0.00 0.00 0.00 0.00 0.00 0.00 0.00 0.00 0.00
0.01 0.01 0.03 0.02 0.01 0.02 0.01 0.01 0.01 0.01 0.01 0.01 0.01 0.00 0.00 0.00 0.00 0.00 0.00 0.00 0.00 0.00 0.00 0.00 0.00 0.00 0.00 0.00 0.00 0.00 0.00 0.00 0.00 0.00 0.00 0.00 0.00 0.00 0.00 0.00 0.00 0.00 0.00 0.00
MSLP
1008.74 1008.91 1008.96 1008.91 1008.82 1008.74 1008.69 1008.70 1008.76 1008.84 1008.91 1008.92 1008.87 1008.75 1008.57 1008.34 1008.09 1007.85 1007.63 1007.43 1007.25 1007.08 1006.93 1006.80 1006.71 1006.67 1006.73 1006.92 1007.25 1007.74 1008.39 1009.16 1010.02 1010.93 1011.84 1012.71 1013.52 1014.24 1014.88 1015.44 1015.95 1016.42 1016.87 1017.32
1007.90 1008.07 1008.12 1008.08 1008.03 1008.02 1008.07 1008.21 1008.39 1008.58 1008.72 1008.77 1008.71 1008.52 1008.24 1007.90 1007.55 1007.22 1006.93 1006.69 1006.50 1006.33 1006.18 1006.04 1005.91 1005.82 1005.81 1005.92 1006.19 1006.63 1007.27 1008.07 1009.00 1009.99 1011.00 1011.98 1012.87 1013.65 1014.32 1014.89 1015.39 1015.85 1016.30 1016.76
1006.78 1006.95 1007.02 1007.05 1007.10 1007.23 1007.45 1007.76 1008.11 1008.43 1008.65 1008.72 1008.61 1008.34 1007.92 1007.43 1006.93 1006.47 1006.09 1005.81 1005.60 1005.44 1005.31 1005.18 1005.04 1004.93 1004.88 1004.94 1005.15 1005.56 1006.19 1007.00 1007.97 1009.03 1010.12 1011.18 1012.14 1012.98 1013.69 1014.29 1014.80 1015.27 1015.73 1016.20
1005.46 1005.61 1005.72 1005.83 1006.03 1006.34 1006.79 1007.32 1007.87 1008.35 1008.66 1008.75 1008.59 1008.19 1007.61 1006.93 1006.25 1005.64 1005.15 1004.80 1004.57 1004.42 1004.32 1004.23 1004.13 1004.03 1003.98 1004.01 1004.20 1004.58 1005.18 1005.99 1006.97 1008.07 1009.20 1010.31 1011.32 1012.21 1012.96 1013.59 1014.14 1014.63 1015.12 1015.62
1004.09 1004.19 1004.29 1004.49 1004.84 1005.36 1006.05 1006.83 1007.60 1008.25 1008.67 1008.78 1008.56 1008.04 1007.29 1006.41 1005.53 1004.75 1004.13 1003.70 1003.44 1003.31 1003.26 1003.23 1003.19 1003.15 1003.12 1003.17 1003.35 1003.70 1004.28 1005.06 1006.03 1007.11 1008.25 1009.37 1010.42 1011.34 1012.13 1012.81 1013.40 1013.94 1014.47 1015.01
1002.84 1002.82 1002.89 1003.12 1003.59 1004.29 1005.19 1006.21 1007.20 1008.02 1008.55 1008.69 1008.43 1007.80 1006.89 1005.83 1004.77 1003.82 1003.08 1002.57 1002.28 1002.18 1002.18 1002.23 1002.28 1002.31 1002.35 1002.43 1002.62 1002.96 1003.50 1004.24 1005.15 1006.19 1007.30 1008.41 1009.45 1010.39 1011.22 1011.95 1012.60 1013.21 1013.80 1014.41
1001.88 1001.68 1001.63 1001.84 1002.35 1003.17 1004.23 1005.42 1006.58 1007.55 1008.17 1008.35 1008.07 1007.37 1006.35 1005.16 1003.95 1002.88 1002.03 1001.47 1001.17 1001.09 1001.16 1001.30 1001.45 1001.58 1001.69 1001.83 1002.03 1002.36 1002.86 1003.54 1004.38 1005.35 1006.40 1007.46 1008.48 1009.43 1010.30 1011.08 1011.79 1012.48 1013.15 1013.83
1001.32 1000.89 1000.67 1000.76 1001.22 1002.05 1003.17 1004.45 1005.70 1006.76 1007.45 1007.68 1007.41 1006.69 1005.62 1004.36 1003.08 1001.95 1001.05 1000.46 1000.17 1000.13 1000.27 1000.50 1000.75 1000.98 1001.18 1001.37 1001.60 1001.92 1002.37 1002.98 1003.74 1004.63 1005.60 1006.60 1007.59 1008.54 1009.42 1010.25 1011.04 1011.80 1012.55 1013.30
1001.21 1000.52 1000.07 999.98 1000.29 1001.02 1002.07 1003.32 1004.58 1005.65 1006.37 1006.64 1006.41 1005.72 1004.68 1003.44 1002.19 1001.06 1000.18 999.62 999.36 999.38 999.59 999.90 1000.24 1000.55 1000.82 1001.07 1001.32 1001.63 1002.05 1002.59 1003.27 1004.06 1004.95 1005.88 1006.83 1007.77 1008.67 1009.54 1010.38 1011.20 1012.02 1012.83
1001.51 1000.57 999.88 999.54 999.63 1000.15 1001.02 1002.12 1003.27 1004.28 1004.99 1005.28 1005.11 1004.51 1003.57 1002.45 1001.29 1000.27 999.48 998.99 998.80 998.87 999.14 999.52 999.92 1000.30 1000.63 1000.91 1001.19 1001.49 1001.87 1002.36 1002.96 1003.67 1004.48 1005.35 1006.26 1007.17 1008.07 1008.96 1009.84 1010.70 1011.56 1012.41
1002.11 1000.98 1000.06 999.47 999.27 999.51 1000.10 1000.96 1001.90 1002.77 1003.40 1003.70 1003.60 1003.13 1002.36 1001.42 1000.46 999.61 998.97 998.59 998.49 998.63 998.95 999.36 999.80 1000.21 1000.57 1000.87 1001.16 1001.46 1001.81 1002.25 1002.80 1003.45 1004.20 1005.01 1005.87 1006.75 1007.64 1008.53 1009.41 1010.28 1011.15 1012.00
1002.84 1001.61 1000.51 999.67 999.19 999.10 999.36 999.90 1000.58 1001.25 1001.77 1002.05 1002.02 1001.70 1001.14 1000.44 999.72 999.09 998.64 998.41 998.40 998.60 998.95 999.37 999.81 1000.22 1000.58 1000.89 1001.18 1001.47 1001.82 1002.23 1002.74 1003.35 1004.05 1004.81 1005.63 1006.48 1007.34 1008.20 1009.06 1009.91 1010.74 1011.56
1003.56 1002.29 1001.09 1000.06 999.32 998.91 998.83 999.02 999.40 999.84 1000.22 1000.45 1000.49 1000.32 999.99 999.54 999.09 998.70 998.45 998.36 998.46 998.70 999.05 999.46 999.87 1000.25 1000.59 1000.90 1001.18 1001.47 1001.82 1002.23 1002.72 1003.30 1003.97 1004.70 1005.47 1006.28 1007.10 1007.92 1008.73 1009.53 1010.32 1011.08
1004.13 1002.90 1001.66 1000.50 999.55 998.85 998.45 998.32 998.40 998.60 998.82 999.01 999.09 999.06 998.93 998.74 998.53 998.38 998.31 998.36 998.53 998.80 999.13 999.50 999.87 1000.21 1000.52 1000.80 1001.09 1001.39 1001.74 1002.16 1002.66 1003.23 1003.88 1004.59 1005.33 1006.10 1006.87 1007.64 1008.39 1009.14 1009.86 1010.57
1004.48 1003.34 1002.10 1000.87 999.76 998.85 998.18 997.76 997.57 997.54 997.62 997.74 997.86 997.94 997.98 997.99 998.00 998.04 998.13 998.29 998.51 998.78 999.08 999.40 999.71 1000.00 1000.28 1000.55 1000.84 1001.17 1001.55 1001.99 1002.51 1003.09 1003.74 1004.43 1005.15 1005.88 1006.61 1007.33 1008.04 1008.72 1009.39 1010.04
1004.62 1003.57 1002.36 1001.09 999.88 998.80 997.92 997.28 996.87 996.65 996.60 996.66 996.78 996.93 997.09 997.26 997.43 997.61 997.81 998.03 998.28 998.54 998.80 999.06 999.32 999.58 999.84 1000.11 1000.43 1000.79 1001.21 1001.69 1002.24 1002.85 1003.51 1004.20 1004.90 1005.61 1006.31 1007.00 1007.67 1008.32 1008.95 1009.56
1004.61 1003.60 1002.41 1001.13 999.85 998.66 997.64 996.83 996.25 995.89 995.72 995.71 995.81 996.00 996.23 996.49 996.75 997.02 997.28 997.54 997.78 998.02 998.24 998.47 998.69 998.93 999.19 999.49 999.84 1000.26 1000.73 1001.28 1001.88 1002.52 1003.20 1003.90 1004.61 1005.31 1006.00 1006.68 1007.33 1007.96 1008.58 1009.18
1004.53 1003.51 1002.31 1001.01 999.68 998.43 997.31 996.39 995.69 995.21 994.95 994.87 994.94 995.11 995.36 995.65 995.95 996.24 996.52 996.78 997.01 997.22 997.43 997.63 997.85 998.09 998.39 998.74 999.15 999.63 1000.18 1000.79 1001.45 1002.15 1002.86 1003.58 1004.31 1005.02 1005.71 1006.39 1007.06 1007.70 1008.32 1008.94
1004.48 1003.41 1002.16 1000.82 999.45 998.15 996.97 995.98 995.20 994.64 994.29 994.14 994.14 994.27 994.48 994.75 995.03 995.31 995.58 995.82 996.03 996.23 996.43 996.64 996.88 997.17 997.52 997.94 998.43 999.00 999.63 1000.32 1001.04 1001.79 1002.54 1003.30 1004.05 1004.78 1005.50 1006.20 1006.88 1007.55 1008.19 1008.83
1004.55 1003.37 1002.06 1000.66 999.26 997.92 996.71 995.67 994.83 994.19 993.77 993.53 993.45 993.50 993.64 993.84 994.07 994.31 994.55 994.76 994.97 995.17 995.39 995.63 995.92 996.27 996.69 997.20 997.78 998.44 999.15 999.92 1000.71 1001.51 1002.31 1003.11 1003.89 1004.65 1005.39 1006.11 1006.82 1007.51 1008.18 1008.83
1004.72 1003.45 1002.06 1000.62 999.19 997.84 996.60 995.52 994.63 993.93 993.41 993.08 992.90 992.84 992.89 993.00 993.16 993.34 993.54 993.74 993.95 994.17 994.43 994.72 995.08 995.51 996.02 996.61 997.28 998.03 998.82 999.66 1000.51 1001.36 1002.21 1003.04 1003.85 1004.63 1005.40 1006.14 1006.87 1007.57 1008.25 1008.90
1004.98 1003.63 1002.20 1000.74 999.30 997.94 996.69 995.58 994.64 993.87 993.27 992.82 992.52 992.35 992.28 992.29 992.38 992.51 992.67 992.87 993.10 993.36 993.67 994.04 994.47 994.98 995.57 996.25 996.99 997.81 998.67 999.56 1000.47 1001.37 1002.26 1003.12 1003.95 1004.75 1005.53 1006.28 1007.00 1007.70 1008.37 1009.00
1005.19 1003.83 1002.41 1000.97 999.55 998.21 996.97 995.84 994.86 994.02 993.32 992.76 992.34 992.04 991.86 991.78 991.79 991.88 992.03 992.25 992.51 992.83 993.21 993.65 994.16 994.74 995.40 996.14 996.95 997.81 998.72 999.65 1000.60 1001.53 1002.45 1003.33 1004.18 1004.99 1005.77 1006.51 1007.22 1007.89 1008.52 1009.11
1005.24 1003.93 1002.57 1001.20 999.85 998.56 997.34 996.22 995.20 994.30 993.51 992.85 992.32 991.91 991.63 991.48 991.44 991.51 991.67 991.92 992.24 992.63 993.08 993.59 994.17 994.81 995.52 996.30 997.13 998.02 998.95 999.91 1000.87 1001.83 1002.76 1003.66 1004.52 1005.34 1006.10 1006.82 1007.49 1008.12 1008.70 1009.23
1004.95 1003.75 1002.51 1001.26 1000.02 998.82 997.67 996.57 995.55 994.61 993.76 993.02 992.40 991.92 991.57 991.38 991.32 991.40 991.60 991.90 992.29 992.76 993.28 993.86 994.49 995.18 995.91 996.70 997.54 998.43 999.36 1000.31 1001.28 1002.25 1003.19 1004.10 1004.96 1005.77 1006.52 1007.21 1007.84 1008.41 1008.93 1009.40
1004.19 1003.15 1002.07 1000.97 999.88 998.81 997.75 996.73 995.74 994.80 993.94 993.17 992.51 991.99 991.63 991.43 991.40 991.53 991.79 992.17 992.65 993.19 993.79 994.43 995.10 995.80 996.54 997.32 998.14 999.01 999.91 1000.85 1001.81 1002.77 1003.71 1004.62 1005.48 1006.28 1007.01 1007.67 1008.26 1008.78 1009.25 1009.66
Thickness
5596 5591 5601 5619 5625 5627 5627 5628 5633 5647 5662 5658 5656 5665 5682 5689 5689 5694 5699 5704 5711 5720 5730 5733 5735 5736 5734 5732 5730 5728 5723 5718 5711 5704 5698 5693 5688 5683 5678 5674 5669 5663 5658 5652
5579 5591 5617 5621 5618 5616 5617 5618 5625 5637 5650 5649 5647 5656 5674 5683 5687 5695 5701 5705 5710 5717 5723 5727 5731 5732 5732 5731 5730 5727 5723 5718 5713 5708 5702 5696 5689 5682 5677 5671 5665 5660 5654 5649
5583 5608 5614 5608 5606 5605 5609 5613 5620 5625 5637 5640 5638 5642 5659 5676 5685 5693 5701 5707 5712 5717 5722 5726 5727 5728 5729 5729 5729 5728 5724 5719 5713 5707 5698 5688 5680 5674 5669 5665 5661 5656 5651 5645
5577 5595 5600 5598 5601 5604 5608 5623 5621 5618 5614 5613 5623 5616 5646 5663 5675 5686 5695 5701 5709 5716 5721 5724 5726 5726 5727 5729 5729 5727 5723 5717 5711 5704 5695 5688 5682 5676 5672 5665 5658 5652 5647 5641
5573 5587 5590 5594 5606 5608 5611 5620 5613 5611 5605 5601 5609 5605 5633 5654 5664 5681 5693 5701 5709 5714 5717 5720 5723 5726 5727 5727 5725 5723 5719 5713 5708 5701 5695 5688 5681 5676 5667 5660 5652 5646 5641 5637
5570 5583 5589 5598 5606 5606 5606 5602 5598 5595 5589 5584 5606 5599 5618 5646 5667 5680 5692 5699 5706 5711 5714 5717 5721 5721 5721 5720 5718 5716 5713 5709 5704 5698 5692 5686 5679 5670 5662 5655 5649 5642 5636 5631
5555 5568 5582 5592 5588 5591 5591 5581 5570 5567 5568 5582 5606 5599 5623 5654 5674 5683 5690 5696 5701 5705 5707 5710 5712 5712 5712 5712 5711 5709 5707 5703 5699 5694 5688 5683 5676 5668 5661 5654 5647 5639 5632 5627
5542 5554 5573 5583 5589 5587 5589 5585 5573 5570 5572 5582 5593 5599 5631 5657 5675 5684 5689 5693 5695 5697 5700 5702 5705 5706 5707 5706 5705 5703 5701 5698 5694 5689 5684 5678 5671 5664 5658 5651 5645 5638 5632 5625
5535 5551 5573 5584 5594 5591 5582 5583 5589 5577 5573 5574 5582 5603 5629 5651 5662 5672 5678 5683 5686 5690 5693 5695 5697 5698 5699 5699 5699 5698 5695 5691 5688 5684 5678 5672 5666 5660 5654 5646 5640 5634 5628 5620
5522 5534 5559 5573 5580 5585 5589 5586 5576 5569 5564 5566 5578 5593 5620 5645 5655 5664 5669 5674 5679 5683 5685 5687 5688 5689 5690 5691 5690 5689 5688 5686 5682 5678 5673 5667 5661 5655 5648 5641 5634 5629 5622 5615
5511 5520 5542 5556 5563 5570 5574 5575 5575 5569 5566 5567 5569 5596 5638 5647 5655 5658 5664 5669 5673 5675 5677 5679 5680 5681 5681 5680 5679 5678 5677 5675 5672 5669 5665 5660 5655 5649 5642 5636 5631 5624 5617 5610
5497 5506 5520 5544 5564 5571 5571 5572 5571 5565 5564 5568 5571 5601 5643 5647 5654 5656 5659 5664 5667 5670 5670 5671 5670 5669 5669 5669 5669 5669 5668 5667 5665 5661 5657 5653 5648 5642 5636 5631 5625 5618 5611 5605
5479 5488 5502 5524 5538 5545 5550 5554 5561 5565 5562 5561 5568 5600 5637 5640 5644 5649 5652 5655 5658 5660 5660 5660 5659 5659 5659 5660 5660 5660 5659 5658 5656 5653 5649 5645 5641 5636 5631 5626 5619 5613 5606 5599
5467 5471 5486 5504 5522 5529 5534 5542 5550 5552 5555 5561 5578 5604 5624 5630 5634 5639 5643 5646 5648 5651 5652 5652 5651 5651 5651 5651 5652 5651 5651 5650 5647 5644 5641 5638 5634 5630 5625 5619 5613 5607 5600 5593
5450 5460 5476 5492 5510 5521 5529 5538 5544 5548 5560 5565 5586 5597 5614 5622 5626 5630 5634 5636 5638 5641 5643 5645 5645 5644 5643 5643 5643 5643 5642 5641 5640 5637 5634 5631 5627 5622 5617 5612 5606 5600 5593 5588
5436 5448 5464 5481 5501 5511 5520 5534 5543 5552 5562 5569 5581 5593 5614 5619 5618 5621 5624 5626 5630 5634 5638 5640 5640 5639 5638 5638 5638 5637 5636 5634 5632 5630 5627 5623 5619 5614 5610 5604 5598 5592 5586 5580
5424 5434 5447 5468 5489 5497 5507 5537 5547 5555 5566 5572 5580 5601 5605 5607 5611 5616 5620 5622 5626 5631 5634 5636 5637 5637 5637 5636 5635 5632 5631 5627 5625 5622 5619 5615 5611 5606 5602 5596 5590 5584 5578 5572
5419 5427 5434 5453 5470 5478 5522 5544 5548 5552 5565 5572 5584 5593 5597 5602 5606 5612 5616 5618 5622 5626 5629 5632 5633 5633 5633 5632 5629 5626 5623 5620 5617 5614 5611 5608 5603 5598 5593 5587 5582 5576 5570 5565
5422 5423 5427 5441 5457 5481 5514 5532 5541 5544 5554 5567 5574 5582 5587 5591 5594 5603 5611 5614 5618 5623 5626 5628 5629 5629 5628 5625 5623 5618 5615 5612 5610 5607 5604 5600 5596 5590 5585 5580 5574 5568 5562 5556
5422 5420 5422 5433 5450 5479 5517 5530 5540 5539 5543 5558 5563 5570 5573 5575 5576 5599 5606 5607 5611 5615 5618 5620 5621 5620 5619 5618 5615 5611 5608 5605 5604 5602 5598 5593 5588 5583 5578 5573 5566 5560 5555 5548
5412 5412 5418 5429 5445 5477 5505 5519 5527 5523 5541 5555 5559 5564 5565 5568 5583 5595 5595 5598 5603 5606 5609 5612 5612 5613 5614 5611 5608 5605 5601 5600 5599 5594 5588 5583 5579 5574 5569 5563 5557 5551 5544 5538
5406 5412 5419 5429 5443 5471 5500 5505 5512 5525 5540 5547 5554 5558 5562 5569 5577 5581 5586 5590 5594 5597 5600 5602 5603 5603 5604 5603 5602 5598 5596 5595 5589 5584 5579 5574 5569 5564 5559 5553 5546 5540 5534 5527
5405 5414 5421 5433 5456 5479 5487 5495 5507 5517 5526 5536 5545 5552 5556 5560 5567 5572 5577 5583 5586 5589 5592 5593 5594 5593 5592 5593 5594 5592 5588 5583 5579 5573 5568 5563 5558 5553 5549 5543 5536 5529 5523 5517
5399 5411 5416 5428 5453 5469 5479 5488 5499 5508 5517 5529 5537 5544 5549 5555 5560 5564 5569 5574 5577 5580 5582 5583 5584 5584 5582 5582 5583 5582 5578 5574 5569 5563 5557 5552 5547 5542 5537 5532 5527 5521 5514 5508
5395 5402 5410 5422 5444 5459 5474 5483 5491 5500 5510 5520 5529 5536 5543 5549 5553 5557 5562 5566 5569 5570 5571 5574 5576 5576 5573 5572 5571 5569 5567 5564 5558 5552 5547 5541 5537 5532 5526 5521 5516 5512 5507 5502
5396 5402 5408 5424 5442 5446 5462 5476 5483 5491 5502 5511 5520 5528 5535 5541 5546 5550 5554 5557 5559 5561 5562 5563 5564 5564 5562 5561 5559 5557 5556 5553 5548 5541 5535 5530 5525 5520 5515 5509 5502 5499 5496 5492